Regional Weather Roundup
Issued by NWS Charleston, SC

Current Version | Previous Version | Graphics & Text | Print | Product List | Glossary On
Versions: 1 2 3 4 5 6 7 8 9 10 11 12 13 14 15 16 17 18 19 20 21 22 23 24 25 26 27 28 29 30 31 32 33 34 35 36 37 38 39 40 41 42 43 44 45 46 47 48 49 50
000
ASUS42 KCHS 011828
RWRCHS

REGIONAL WEATHER ROUNDUP
NATIONAL WEATHER SERVICE CHARLESTON SC
200 PM EDT SUN MAY 01 2016

NOTE: "FAIR" INDICATES FEW OR NO CLOUDS BELOW 12,000 FEET WITH NO
SIGNIFICANT WEATHER AND/OR OBSTRUCTIONS TO VISIBILITY.

NOT ALL STATIONS ARE QUALITY CONTROLLED. USE DATA WITH CAUTION...
ESPECIALLY DEWPOINT OBSERVATIONS.

SCZ027-030-031-034>040-042>050-011900-
...SOUTHEAST SOUTH CAROLINA...

CITY           SKY/WX    TMP DP  RH WIND       PRES   REMARKS
N CHARLESTON   CLOUDY    78  68  71 S13       30.06F THUNDER
6HR MIN TEMP:  75; 6HR MAX TEMP:  82; 6HR PCP:  0.03;

WATERFRONT PRK   N/A     77  71  82 S12       30.05F
MOUNT PLEASANT FAIR      77  72  83 S9G20     30.07F
JOHNS ISLAND   MOCLDY    81  72  74 S12G21    30.06F
PINOPOLIS        N/A     86  70  58 S5        29.97F HX  90
MONCKS CORNER  MOCLDY    79  66  65 S10G20    30.05F
SUMMERVILLE    FAIR      79  66  65 S7        30.06F
BEAUFORT MCAS  PTSUNNY   84  68  58 S9        30.05F
6HR MIN TEMP:  76; 6HR MAX TEMP:  87; 6HR PCP: TRACE;

BEAUFORT ARPT  FAIR      82  68  61 S13G20    30.05S
HILTON HEAD IS MOSUNNY   77  70  78 S12G21    30.07F
WALTERBORO     PTCLDY    81  77  89 S9        30.04F
ALLENDALE      MOCLDY    84  66  54 VRB5      30.02R THUNDER

...SOUTHERN MIDLANDS AND PEE DEE...

CITY           SKY/WX    TMP DP  RH WIND       PRES   REMARKS
GEORGETOWN     CLOUDY    79  68  69 S13G18    30.08F
KINGSTREE      MOCLDY    81  66  61 SE7       30.04F
ORANGEBURG     LGT RAIN  74  71  91 CALM      30.04R FOG
6HR MIN TEMP:  72; 6HR MAX TEMP:  86; 6HR PCP:  0.09;

BARNWELL       TSTM      79  72  78 N12G18    30.03S
AIKEN          MOCLDY    79  66  65 S6        30.06F
MANNING        NOT AVBL
COLUMBIA       CLOUDY    85  66  53 NW9       30.00F
6HR MIN TEMP:  71; 6HR MAX TEMP:  86; 6HR PCP:  0.13;

SUMTER         TSTM      72  64  78 NW7G39    30.02R VSB 1/2
                                      6HR PCP:  0.02;

FLORENCE       CLOUDY    67  65  93 SE9       30.07F
6HR MIN TEMP:  66; 6HR MAX TEMP:  75; 6HR PCP:  0.61;

MYRTLE BEACH   CLOUDY    75  64  69 S14       30.10F
N MYRTLE BEACH CLOUDY    75  67  76 S6        30.09F
6HR MIN TEMP:  72; 6HR MAX TEMP:  76;


$$

GAZ063-065-086>088-099>101-113>116-118-119-134>141-150-011900-
...SOUTHEAST GEORGIA...

CITY           SKY/WX    TMP DP  RH WIND       PRES   REMARKS
SAVANNAH ARPT  PTSUNNY   83  65  54 S10       30.05F
6HR MIN TEMP:  75; 6HR MAX TEMP:  86;

HUNTER AAF     LGT RAIN  77  72  83 SW13G20   30.04R
6HR MIN TEMP:  75; 6HR MAX TEMP:  83; 6HR PCP: TRACE;

FORT STEWART   PTSUNNY   83  65  54 S6        30.03F
6HR MIN TEMP:  73; 6HR MAX TEMP:  84; 6HR PCP:  0.01;

STATESBORO     PTSUNNY   90  71  53 S9        30.02F HX  97
SYLVANIA       MOCLDY    84  71  64 SW5       30.04S
CLAXTON        FAIR      86  72  63 SE7       30.03F HX  92

...CSRA...CENTRAL AND FAR SOUTHEAST GEORGIA...

CITY           SKY/WX    TMP DP  RH WIND       PRES   REMARKS
THOMSON        PTSUNNY   86  68  54 W6G17     30.06F HX  90
AUGUSTA-BUSH   MOSUNNY   86  67  52 SW13      30.00F
6HR MIN TEMP:  72; 6HR MAX TEMP:  86;

AUGUSTA-DANIEL SUNNY     86  65  49 VRB5      30.02F
SWAINSBORO     MOCLDY    77  72  83 E3        30.04F
VIDALIA        MOSUNNY   88  68  51 S8        30.03F HX  91
EASTMAN        FAIR      84  71  65 S14       30.06S
HAZLEHURST     FAIR      86  69  56 S8        30.02F HX  91
ALMA           MOSUNNY   85  67  54 S9        30.04F
6HR MIN TEMP:  72; 6HR MAX TEMP:  86;

WAYCROSS       MOSUNNY   85  68  56 CALM      30.04F
JESUP          MOCLDY    86  72  62 E7        30.05S HX  92
BAXLEY         FAIR      88  68  51 SW7       30.03F HX  91
BRUNSWICK      MOSUNNY   90  70  51 SE13      30.05F HX  95
SAINT SIMONS   SUNNY     82  72  71 SE13      30.05F
6HR MIN TEMP:  75; 6HR MAX TEMP:  82;


$$

SCZ027-028-034-036>038-045-046-048>050-GAZ119-141-011900-
...LAKE AND SUPPLEMENTAL COASTAL OBSERVATIONS...

STATION/POSITION TIME  TEMP    WIND        PRES    WAVE   SWELL
                       AIR SEA DIR/SP/G            HT/PER HT/PER/DIR
                 (UTC) (F)     (DEG/KT/KT) (MB)    (FT/S) (FT/S/D)
WINYAH BAY       1700   77     190/ 12     1018.0F
LAKE MURRAY      1700   79     200/  6/ 10 1016.3F
ACE BASIN NERRS  1700   80     160/  1     1018.0F
FORT PULASKI     1800   80 73  180/  6/ 12 1018.0F
SAPELO ISLAND    1800   84     150/ 11     1018.0S

$$

ANZ835-935-AMZ111-154-330-350-352-354-370-450-454-472-011900-
...C-MAN AND BUOY OBSERVATIONS...

STATION/POSITION TIME  TEMP    WIND        PRES    WAVE   SWELL
                       AIR SEA DIR/SP/G            HT/PER HT/PER/DIR
                 (UTC) (F)     (DEG/KT/KT) (MB)    (FT/S) (FT/S/D)
BUOY 41004       1750   75 73  170/ 10/ 14 1018.4F   5/ 6   3/ 6
BUOY 41008       NOT AVBL
FOLLY BEACH CMAN 1800   74     160/ 11/ 11 1018.4F
CAPERS NEARSHORE 1708   73 72  190/  8/ 12 1018.8F
FRIPP NEARSHORE  1808   75 74  180/  8/ 10 1017.2F


STATION/POSITION TIME  TEMP    WIND        PRES    WAVE   SWELL
                       AIR SEA DIR/SP/G            HT/PER HT/PER/DIR
                 (UTC) (F)     (DEG/KT/KT) (MB)    (FT/S) (FT/S/D)
5E ST. MARYS GA  1721      74                N/A     3/ 5
FRYING PAN BUOY  1800   74 72  170/  4/  6 1019.1F
BUOY 41025       1750   74 74  190/ 16/ 17 1019.5F   4/10   3/ 70/10
CAPE LOOKOUT NC  1800   71     180/  9/ 10 1019.3F
BUOY 41002       1750   72     140/ 10/ 14 1020.7R   4/10   3/ 10/10
BUOY 41010       1720   77 78  150/ 10/ 12 1018.7F
ST AUGUSTINE FL  1800   75 73  120/ 14/ 16 1018.2F


$$




USA.gov is the U.S. government's official web portal to all federal, state and local government web resources and services.